Regional Weather Roundup
Issued by NWS

Home | Current Version | Previous Version | Graphics & Text | Print | Product List | Glossary On
Versions: 1 2 3 4 5 6 7 8 9 10 11 12 13 14 15 16 17 18 19 20 21 22 23 24 25 26 27 28 29 30 31 32 33 34 35 36 37 38 39 40 41 42 43 44 45 46 47 48 49 50
000
ASUS43 KBIS 241810
RWRND
NORTH DAKOTA REGIONAL WEATHER ROUNDUP
NATIONAL WEATHER SERVICE EASTERN NORTH DAKOTA/GRAND FORKS ND
100 PM CDT TUE APR 24 2018

  NOTE: "FAIR" INDICATES FEW OR NO CLOUDS BELOW 12,000 FEET WITH NO
  SIGNIFICANT WEATHER AND/OR OBSTRUCTIONS TO VISIBILITY.

NDZ001>003-009>011-017-241900-
...NORTHWEST NORTH DAKOTA...

CITY           SKY/WX    TMP DP  RH WIND       PRES   REMARKS
WILLISTON      FAIR      55  24  30 S6        30.46F
6HR MIN TEMP:  21; 6HR MAX TEMP:  55;

MINOT          FAIR      56  22  26 NW9G21    30.43F
MINOT AFB      FAIR      55  23  28 N12G17    30.42F
6HR MIN TEMP:  26; 6HR MAX TEMP:  55;

$$

NDZ018>021-031>035-040>046-241900-
...SOUTHWEST NORTH DAKOTA...

CITY           SKY/WX    TMP DP  RH WIND       PRES   REMARKS
BISMARCK       FAIR      54  24  31 N16G26    30.45S
DICKINSON      FAIR      52  18  26 N12       30.45F
GARRISON         N/A     51  24  34 NW14G24   30.45F
HETTINGER      FAIR      44  29  55 NW10      30.49F
$$

NDZ004>008-012>016-024-026-027-054-241900-
...NORTHEAST NORTH DAKOTA...

CITY           SKY/WX    TMP DP  RH WIND       PRES   REMARKS
GRAND FORKS    FAIR      49  32  52 N21G31    30.39S
GRAND FORKS AF FAIR      51  28  40 N18G26    30.39F
DEVILS LAKE    FAIR      49  28  44 N18G24    30.42F
$$

NDZ022-023-025-028>030-036>039-047>053-241900-
...SOUTHEAST NORTH DAKOTA...

CITY           SKY/WX    TMP DP  RH WIND       PRES   REMARKS
JAMESTOWN      FAIR      52  31  44 N18G26    30.39F
FARGO          FAIR      51  35  54 N20G26    30.36F
WAHPETON       FAIR      48  34  57 N15G21    30.35S
$$




USA.gov is the U.S. government's official web portal to all federal, state and local government web resources and services.